Wind_Speed
22 23 23 23 23 23 23 23 23 23 23 24 24 24 25 25 25 25 24 23 22 21 19 18 18 18 18 17 16 15 14 13 13 13 14 15 16 16 15 15 13 10 9 7 6 7 9 11 12 13 14 14 15 16 16 15 14 12 12 11 11 12 14 15 16 16 16 15 15 15 15 15 16 17 18 19 22 24 25 27 29 30 32 33 34
22 23 23 23 23 24 24 24 24 23 23 24 24 25 26 27 27 27 26 26 25 24 21 20 19 19 19 18 18 17 16 15 15 14 15 16 17 17 17 16 15 13 11 9 9 9 10 11 13 14 14 14 16 16 17 16 15 14 14 14 14 14 14 15 16 17 17 17 16 16 17 17 17 18 19 20 23 25 27 28 30 31 33 34 36
22 23 24 23 24 24 24 23 22 22 22 22 23 24 25 26 28 28 28 28 28 26 24 22 21 20 21 20 19 19 18 17 16 16 16 17 18 18 18 18 17 15 13 11 11 11 12 12 13 13 13 14 15 16 17 16 16 16 16 16 17 17 16 16 17 18 18 18 18 18 19 19 20 21 22 23 25 26 28 30 31 33 34 35 36
23 23 23 24 24 24 22 21 20 19 20 20 21 22 23 24 26 27 28 29 28 27 26 24 22 22 22 21 20 20 20 19 18 17 18 19 19 20 20 19 19 17 15 13 12 13 13 13 13 13 13 14 15 16 16 16 17 18 18 18 18 19 19 18 18 19 20 20 20 21 21 22 22 23 24 25 26 28 29 31 33 34 36 37 37
23 23 24 25 25 23 21 19 18 18 18 18 18 19 19 20 22 23 25 27 27 28 27 26 24 23 23 22 22 22 22 21 20 19 20 20 21 21 21 21 21 19 17 15 14 14 14 14 14 13 13 14 15 16 17 17 19 20 19 18 19 20 19 19 19 20 21 22 23 23 24 25 25 25 26 27 27 29 30 32 34 36 37 38 39
23 24 25 25 24 22 20 19 17 17 18 17 17 16 15 15 15 17 19 21 24 26 27 27 26 25 25 25 24 24 24 24 22 21 22 22 22 22 22 23 22 21 19 17 16 16 16 16 16 15 15 15 16 17 18 19 19 19 18 18 20 20 20 21 21 22 23 24 25 26 27 27 27 28 28 29 30 31 32 34 36 38 39 40 41
23 24 25 25 24 22 21 19 18 18 18 18 17 15 13 11 10 10 11 12 14 18 21 25 26 26 27 26 26 26 25 25 24 23 23 23 23 23 23 24 24 23 21 20 19 18 17 17 17 17 17 16 17 18 19 19 17 17 17 18 19 21 22 22 23 23 24 24 26 27 28 29 29 30 30 31 32 33 34 36 38 39 40 41 43
23 23 24 24 23 22 21 21 21 19 18 18 16 13 11 10 8 7 6 6 7 8 12 17 22 25 27 27 27 27 26 26 26 25 25 24 24 24 24 26 26 24 23 23 21 20 19 18 18 18 19 19 18 19 19 19 17 16 16 18 19 21 22 23 23 24 24 26 27 28 30 30 31 31 32 33 34 34 36 37 39 40 41 42 43
24 23 23 22 22 23 23 23 22 21 19 17 14 12 10 8 7 6 5 5 5 5 6 8 12 17 21 25 26 27 27 27 26 26 26 25 25 25 25 27 28 27 25 25 23 22 21 20 19 19 20 20 20 20 20 20 18 16 16 17 19 21 22 23 24 25 26 27 29 30 31 32 32 33 34 34 35 36 37 38 39 40 41 42 44
25 23 22 21 22 25 25 25 23 21 20 17 14 12 11 8 7 6 4 3 3 4 6 6 7 10 13 17 20 23 24 25 26 27 27 26 26 27 27 28 29 28 27 26 25 23 23 22 20 20 21 22 22 22 21 20 19 17 15 17 19 21 22 23 23 25 27 29 31 32 33 33 33 34 35 36 36 37 38 38 39 40 41 42 44
26 24 22 22 24 26 26 25 23 21 19 17 15 14 12 10 8 7 5 4 3 4 5 6 7 9 10 12 14 16 18 21 25 27 28 27 28 28 28 28 30 30 28 27 27 25 24 24 23 22 22 23 24 24 22 21 20 18 17 17 20 22 23 23 24 26 28 30 32 33 34 35 35 35 35 36 37 38 38 39 39 41 41 42 45
27 25 23 22 24 25 26 25 23 22 20 18 16 15 15 13 11 9 7 6 6 6 5 6 7 9 10 12 13 14 15 17 21 25 28 28 28 29 29 29 30 31 29 28 28 27 26 26 25 24 24 25 26 25 25 24 22 20 19 19 21 22 24 24 25 27 30 32 33 34 34 35 35 36 36 37 38 38 38 39 40 41 41 42 45
26 25 23 23 23 24 26 26 23 21 21 20 19 18 18 16 14 11 10 10 10 9 8 8 9 10 11 12 13 15 16 16 19 23 27 28 29 29 29 30 31 32 31 30 30 29 28 28 27 26 25 27 28 27 26 26 25 22 21 22 23 24 26 26 26 28 31 33 34 35 35 35 36 36 37 38 38 39 39 39 40 41 41 42 44
24 24 23 23 24 25 26 25 23 22 21 22 22 21 20 19 17 15 15 14 13 12 12 12 12 11 12 13 14 15 16 17 19 22 25 28 28 28 29 31 32 33 32 32 31 31 30 29 29 28 28 28 29 29 28 28 27 25 24 25 26 27 28 28 29 30 32 34 36 36 36 37 37 38 38 39 39 39 39 40 41 41 41 42 44
24 24 24 24 24 26 26 25 24 23 22 23 23 23 23 22 20 18 18 17 17 16 17 17 16 15 15 15 15 15 15 16 19 22 25 27 29 29 29 31 32 33 33 32 32 32 32 31 31 31 30 29 30 31 30 30 29 28 27 28 29 30 30 31 31 32 34 36 37 38 38 39 39 39 39 40 40 40 40 41 41 41 41 42 44
24 24 23 23 23 24 24 24 24 23 23 23 23 24 25 23 22 21 21 20 20 21 22 22 20 19 19 19 18 17 17 17 18 21 24 27 30 31 30 30 31 32 33 32 33 34 33 33 33 33 32 31 31 33 33 32 31 30 29 30 32 32 32 33 34 34 35 37 39 40 40 41 41 40 40 41 41 41 41 41 42 41 40 41 43
23 22 21 20 20 21 22 23 24 24 24 24 24 25 26 25 25 24 23 23 24 25 26 26 25 25 24 24 22 21 20 20 20 21 24 27 30 32 32 30 31 32 33 33 34 35 35 34 35 35 34 32 32 34 36 35 33 32 31 33 34 34 34 35 35 36 37 38 40 42 42 42 42 41 41 42 42 42 42 42 42 41 40 41 42
23 21 21 21 20 21 23 25 27 27 28 27 27 26 26 26 26 26 26 27 28 28 28 29 29 29 28 28 27 26 26 25 24 24 26 28 30 32 33 33 33 33 34 34 35 36 36 36 36 37 35 33 33 36 38 37 35 33 33 34 35 37 36 35 36 38 39 40 41 43 44 44 43 42 42 42 43 43 43 43 42 41 40 40 42
24 24 24 24 23 24 28 31 32 32 32 31 30 29 29 29 30 30 31 31 31 30 30 30 31 31 30 29 29 29 30 31 30 28 28 30 31 32 33 34 34 34 34 35 36 37 37 37 37 38 37 35 35 37 40 40 38 36 35 36 37 39 39 37 37 39 40 41 43 44 45 45 45 43 43 43 43 43 43 43 43 41 40 40 41
27 27 28 28 27 29 31 32 32 31 31 31 32 33 34 34 35 35 35 35 35 34 33 32 32 32 31 31 31 30 30 32 34 35 35 34 34 36 35 35 35 34 34 35 36 37 38 38 37 38 39 38 38 40 42 42 40 38 37 38 39 41 41 39 39 41 43 44 44 44 45 46 45 44 43 43 43 44 43 43 43 41 40 40 40
30 30 31 30 30 31 30 29 28 27 28 31 33 35 37 37 38 41 41 39 37 36 36 35 34 33 34 35 34 32 31 31 32 36 39 39 38 38 39 38 36 36 37 37 37 37 36 37 38 39 41 41 41 43 45 44 42 41 40 40 41 43 44 42 43 45 46 46 46 45 45 46 46 45 44 43 43 44 43 43 43 42 40 39 39
33 33 32 31 31 31 30 29 29 29 30 32 33 34 35 35 36 40 42 40 36 36 37 37 35 35 35 35 35 34 34 32 31 31 36 41 42 41 42 41 40 40 41 40 39 37 36 36 38 39 42 45 45 46 47 46 45 43 42 43 44 45 46 46 47 49 49 48 47 46 45 46 46 45 45 44 43 44 43 43 42 42 41 38 38
33 33 32 31 31 31 31 31 32 33 34 34 33 33 34 34 33 34 37 37 37 37 37 36 36 36 36 36 35 35 35 35 34 30 30 36 41 44 46 47 47 47 47 44 42 40 38 38 38 39 42 46 48 49 50 49 47 46 46 46 47 49 50 50 51 52 51 50 49 47 45 45 46 46 45 44 43 43 43 42 42 42 41 38 37
35 34 34 33 33 33 33 33 34 35 35 35 35 35 35 35 35 33 34 36 38 39 38 37 38 38 38 38 39 38 38 37 37 34 31 32 36 41 44 47 50 53 53 51 48 46 44 41 39 41 46 49 50 52 52 51 50 50 50 50 51 53 53 52 53 54 52 50 48 46 45 46 47 47 46 44 43 43 42 41 42 42 41 38 35
37 37 37 36 35 35 36 36 36 37 37 37 38 38 37 36 36 35 35 37 38 39 39 40 41 41 42 42 42 42 42 41 40 39 37 36 36 38 40 43 47 49 51 51 51 51 50 47 44 44 48 52 53 53 53 53 52 53 54 54 55 57 56 55 57 57 54 51 48 45 44 47 48 48 46 43 42 42 41 40 41 42 41 38 35
39 39 39 39 39 38 38 38 39 39 40 40 40 39 39 39 37 37 38 39 39 40 41 43 44 44 45 45 44 45 46 47 46 44 42 41 41 41 42 44 47 47 47 49 50 50 50 50 49 48 51 53 54 54 55 55 56 57 58 57 58 59 58 58 59 59 57 54 53 52 52 51 49 48 46 43 42 41 40 40 41 42 41 38 34
42 41 41 41 41 40 40 40 41 42 42 41 41 40 41 41 40 40 41 41 41 42 44 46 48 49 49 48 48 49 51 51 51 49 47 46 45 45 46 47 49 51 51 52 54 53 49 47 47 49 52 54 54 55 57 57 58 60 61 61 62 62 60 60 61 61 59 58 59 60 59 53 49 48 46 42 40 40 39 39 40 41 41 38 34
41 42 42 42 42 42 42 42 43 43 43 42 42 42 42 43 43 43 43 44 44 46 47 49 51 52 53 53 54 54 55 55 53 52 51 50 49 50 51 52 54 57 57 58 60 59 55 49 48 50 53 54 54 55 57 57 60 62 63 64 65 64 62 63 63 62 61 60 61 61 57 50 48 47 43 39 39 39 38 39 40 40 40 37 32
41 42 43 43 44 44 44 45 45 45 45 44 44 44 44 44 44 45 46 47 48 49 50 52 53 54 55 56 57 57 57 57 55 54 54 54 53 54 56 56 58 61 62 63 65 65 62 57 53 53 55 56 56 56 56 57 60 62 65 68 68 66 64 65 65 62 61 61 61 60 55 49 46 44 39 37 37 37 37 38 39 40 40 37 32
44 45 45 46 47 47 47 48 47 47 47 47 47 47 47 46 46 47 49 50 51 52 52 53 53 54 55 57 58 58 58 57 56 57 59 59 59 59 60 60 61 63 65 65 65 66 65 63 62 61 60 58 57 56 56 58 61 63 66 70 69 66 65 66 65 63 62 61 61 58 52 46 44 41 38 36 36 36 36 37 38 40 40 36 31
45 47 48 49 49 50 50 50 50 50 49 49 48 48 48 48 49 50 52 52 53 54 54 54 55 56 57 58 59 60 60 60 59 60 62 63 64 65 65 65 66 68 70 71 71 69 67 66 67 68 67 64 61 58 56 59 62 65 69 72 69 66 65 65 64 63 63 62 61 58 51 46 44 40 36 35 35 35 36 37 38 40 40 36 30
44 45 46 46 46 47 47 47 47 47 47 47 47 47 47 48 49 50 52 53 54 55 56 57 58 59 60 61 62 63 64 64 63 64 65 66 67 68 69 70 71 72 74 77 79 77 74 70 68 70 71 70 67 62 59 60 63 66 71 72 70 66 65 65 63 61 60 59 57 54 49 46 43 38 34 33 34 34 35 37 38 40 40 35 29
44 43 42 42 41 41 41 42 43 44 44 44 45 46 46 47 49 50 52 54 56 57 59 60 61 62 62 63 65 66 66 66 65 66 67 68 69 70 71 72 75 76 78 81 83 84 83 78 73 71 70 68 66 64 62 62 65 68 71 71 69 66 66 65 62 60 59 59 56 51 46 43 40 35 31 32 33 34 35 36 38 39 39 35 29
45 44 43 41 41 41 41 42 43 44 45 46 47 48 49 50 52 54 55 57 58 60 61 62 63 64 64 64 66 67 68 68 67 67 68 69 70 71 73 74 75 77 79 81 85 87 88 85 80 76 72 69 67 66 65 65 67 70 72 72 69 67 67 66 62 59 59 59 56 50 44 40 37 32 29 31 33 33 35 36 37 39 39 35 28
46 46 45 44 44 44 44 44 45 45 47 48 49 50 52 54 56 57 58 59 60 60 61 62 64 65 65 66 66 67 68 68 68 68 69 70 70 72 74 75 76 77 78 80 83 87 88 86 83 79 75 72 69 67 68 69 68 66 66 67 66 66 68 68 64 59 57 57 55 49 43 39 35 31 28 30 32 33 35 36 37 39 39 34 28
47 48 47 47 47 47 46 47 48 48 49 50 52 53 55 57 58 59 60 61 61 60 61 62 62 63 65 66 67 68 68 68 67 67 68 70 72 74 76 77 76 76 78 81 83 84 84 84 83 80 76 73 70 69 68 67 65 60 57 58 61 65 69 70 67 62 57 56 54 48 42 39 35 30 27 29 31 33 34 36 37 39 39 34 29
49 49 49 49 48 48 48 49 50 51 52 53 55 56 58 59 60 61 61 62 61 61 61 61 61 61 63 65 67 68 68 67 66 67 70 72 74 77 79 80 81 81 82 83 84 83 82 82 83 82 78 74 70 69 67 65 63 62 59 58 59 63 67 72 72 66 59 56 52 45 40 37 33 28 27 29 31 32 34 35 37 39 38 34 29
50 50 50 50 49 50 51 52 53 53 55 56 57 58 60 61 61 62 62 61 61 60 60 60 60 61 62 63 65 65 66 66 67 68 70 72 74 78 83 88 91 91 88 87 87 85 81 80 80 80 77 72 66 65 66 66 66 65 64 61 59 60 63 68 70 66 59 55 49 42 38 35 31 27 28 30 31 32 34 35 37 38 37 34 30
51 50 50 50 50 51 52 53 55 55 56 57 58 59 60 60 61 62 61 60 59 58 58 59 59 60 60 62 63 62 64 67 69 69 70 71 74 80 84 84 84 83 83 83 83 81 78 76 75 73 71 69 66 64 65 67 67 66 63 61 61 61 61 61 62 61 58 53 46 40 37 34 30 28 29 30 31 32 34 35 36 37 36 33 30
52 51 50 49 50 51 53 55 57 58 59 59 59 59 59 60 61 61 60 58 57 56 56 57 57 58 59 61 61 62 64 66 67 68 69 69 73 78 77 65 56 54 55 60 66 68 68 67 68 68 67 66 64 64 63 64 66 66 64 62 64 64 62 59 57 53 49 46 42 39 37 33 29 28 29 30 31 32 33 35 36 37 36 33 30
49 47 46 45 46 47 49 51 53 56 58 59 60 59 59 58 58 57 56 56 55 55 55 55 56 56 58 60 61 62 65 65 63 63 64 66 70 72 63 47 36 31 31 39 49 53 55 58 63 68 70 69 66 66 67 66 63 60 59 59 60 58 56 54 50 43 39 38 38 37 34 31 28 29 30 30 31 32 33 35 36 37 36 33 30
43 43 43 43 44 44 46 47 48 51 53 54 55 55 54 53 53 53 54 54 54 53 53 54 55 56 58 59 60 62 64 63 59 56 57 60 59 50 35 22 21 23 30 41 48 47 49 55 61 64 67 68 67 67 66 61 52 45 45 46 47 46 45 45 42 38 36 38 37 34 31 28 28 29 30 30 31 32 34 35 36 36 35 33 31
42 43 43 44 45 46 47 48 49 50 50 50 49 50 50 50 51 52 52 53 53 52 53 54 54 56 57 58 58 60 60 59 55 51 50 52 49 38 26 17 15 27 41 52 59 61 59 58 59 58 59 60 60 58 55 48 40 37 37 38 39 41 41 39 38 38 38 37 34 31 28 27 28 29 30 30 31 33 34 35 36 36 35 33 32
43 43 43 43 44 46 47 48 49 49 49 49 48 48 48 49 50 50 51 52 52 52 53 54 54 55 56 56 56 57 57 55 52 49 47 47 45 40 37 34 25 25 40 50 55 55 50 46 46 50 53 52 51 49 46 42 38 37 36 37 39 41 39 37 38 38 37 34 30 28 26 27 28 29 30 30 31 33 34 35 36 35 34 34 33
45 44 43 44 45 46 47 47 47 47 48 48 48 47 47 48 48 49 50 51 52 52 53 53 54 54 54 53 53 53 53 52 49 47 46 44 40 36 36 36 29 20 24 30 31 34 37 36 40 47 50 50 47 45 43 41 39 38 37 38 39 39 38 37 37 35 32 29 27 26 26 27 29 30 30 31 32 33 34 35 35 35 34 34 33
47 46 45 45 46 46 47 46 45 45 46 47 47 47 47 47 47 48 49 50 51 51 52 53 53 52 52 51 50 49 49 48 46 43 43 41 36 31 29 28 24 20 22 26 31 36 38 38 40 43 46 47 46 44 43 43 41 39 37 37 37 36 35 34 33 31 29 28 27 26 27 28 29 30 31 31 31 33 34 34 35 34 34 34 34
49 47 46 46 46 46 45 45 44 44 45 46 46 46 47 47 47 48 49 49 49 50 51 51 51 51 50 49 48 46 44 42 40 40 41 41 37 32 27 24 20 19 22 26 29 30 32 34 37 40 42 43 44 44 43 42 38 35 33 34 34 34 33 31 30 29 28 27 27 27 28 29 30 30 31 31 32 33 34 34 34 34 34 34 34
49 48 47 46 46 45 45 44 44 44 44 44 45 46 46 47 47 47 47 47 47 48 49 49 48 48 47 46 45 44 43 39 36 36 38 40 39 35 30 26 23 22 21 22 23 24 25 28 30 32 32 33 34 34 34 33 31 31 32 33 32 31 29 28 28 27 27 28 29 29 29 29 30 30 31 32 33 33 34 34 35 34 34 34 34
46 46 46 46 45 45 44 44 44 44 44 43 44 44 45 45 46 46 45 45 44 45 45 45 44 42 42 41 41 43 43 42 38 36 36 36 35 32 29 27 26 25 24 24 24 24 24 24 25 25 26 27 28 28 28 29 31 32 32 30 28 27 26 26 27 27 29 29 30 29 29 30 30 30 31 32 33 33 34 34 35 35 34 34 34
42 42 42 42 42 42 42 42 43 43 43 43 43 43 43 43 43 43 43 43 42 42 42 42 41 39 38 38 38 40 41 40 36 32 31 31 31 30 30 30 28 27 26 27 28 28 29 29 28 28 28 28 29 30 31 31 31 30 28 27 26 26 25 26 27 29 30 30 30 30 30 31 31 31 32 32 33 33 34 34 35 35 35 35 34
38 38 38 38 38 38 39 40 41 42 42 42 41 41 41 41 42 42 42 42 42 41 41 41 41 40 40 38 37 36 37 37 35 33 31 31 31 32 33 33 31 29 28 29 29 30 31 32 32 32 32 32 33 33 32 31 29 28 27 26 25 25 26 27 28 29 30 30 31 31 31 32 32 33 33 33 33 33 34 35 35 36 35 35 34
Wind_Direction
228 229 231 232 234 235 236 237 238 240 241 243 244 245 246 246 246 246 248 249 249 248 246 246 244 243 245 246 248 255 265 271 266 256 250 253 257 257 258 259 253 249 254 263 282 305 322 334 341 342 342 341 338 340 344 346 345 341 336 333 330 327 323 319 317 316 316 316 315 315 314 313 312 312 311 311 312 313 315 315 315 315 315 315 315
230 232 232 232 233 234 235 236 238 241 244 247 248 250 250 250 251 250 249 250 251 250 248 247 246 245 245 245 245 249 257 266 268 260 252 251 255 256 256 257 255 253 257 266 277 292 308 325 335 338 337 335 332 333 338 341 341 338 335 332 329 327 324 321 318 317 315 314 313 311 309 308 308 307 308 310 311 312 313 313 314 314 313 314 315
228 231 231 231 232 234 235 237 241 245 248 251 252 253 253 253 254 254 252 251 251 251 251 249 247 247 246 245 244 246 251 258 264 262 254 251 254 255 255 256 256 255 258 266 276 286 298 312 326 331 329 327 325 327 332 335 336 335 332 329 326 324 322 321 320 318 316 314 313 310 307 306 306 308 310 312 313 313 313 313 313 313 313 315 317
227 229 230 230 232 235 237 240 244 248 252 255 256 256 255 255 254 254 254 253 252 252 251 251 249 248 248 246 244 244 246 250 256 258 255 251 252 254 254 255 255 255 256 263 272 282 291 302 315 322 321 318 318 321 325 327 329 330 328 326 325 322 320 319 319 319 317 315 313 311 309 308 309 311 312 312 313 313 313 313 313 313 314 317 318
229 229 230 231 233 236 238 241 246 253 256 259 259 259 258 258 257 256 255 255 254 253 251 251 250 249 249 247 244 243 243 245 250 254 254 252 251 253 254 255 256 255 256 260 267 276 285 295 305 312 313 311 312 315 316 316 321 324 324 325 325 323 321 319 319 320 319 317 315 313 311 311 311 313 313 313 313 313 312 313 314 315 317 318 320
232 231 232 233 235 237 239 241 247 255 260 261 261 262 263 262 260 259 258 258 257 255 253 251 250 249 249 248 246 244 243 244 248 252 255 254 251 252 254 255 256 256 256 258 263 271 280 288 297 303 305 305 306 309 310 312 317 322 322 323 323 322 322 320 318 319 319 317 315 312 311 312 312 313 313 313 313 313 313 314 315 317 319 321 322
235 233 234 235 236 238 239 240 245 253 259 261 262 264 264 260 258 257 259 260 259 258 254 251 250 248 248 248 246 245 245 246 248 252 256 255 253 251 252 254 255 256 256 257 260 266 274 281 290 296 299 300 301 304 306 309 316 321 321 320 320 320 320 319 317 317 317 316 314 312 311 311 312 312 312 312 312 313 314 315 317 319 321 323 324
236 234 236 237 238 240 240 239 242 248 252 256 260 262 258 251 245 244 246 250 257 262 259 253 249 247 247 248 247 247 246 247 249 253 256 256 254 252 251 253 255 255 255 256 258 263 269 276 283 290 294 296 297 300 304 306 310 317 318 317 317 318 318 317 317 316 316 315 313 311 310 311 311 311 311 311 311 312 314 317 319 321 323 324 325
235 232 233 236 237 239 239 238 241 245 247 249 251 250 245 236 225 223 230 238 247 258 265 261 254 248 246 246 247 247 247 248 251 253 255 255 254 252 250 251 253 254 254 255 257 260 265 271 278 285 290 293 295 297 300 302 305 311 315 315 315 315 316 317 318 317 316 314 312 310 309 310 310 310 310 309 311 313 315 318 320 322 323 324 326
236 231 230 231 232 235 236 236 239 243 244 243 241 239 237 228 211 203 208 222 242 258 261 260 258 253 248 246 245 244 244 246 250 253 254 254 253 252 250 250 252 254 254 256 257 259 263 268 274 280 285 289 291 293 296 298 301 306 312 314 314 314 315 318 319 318 316 313 311 310 310 310 310 310 309 309 311 314 317 319 322 323 323 324 328
236 232 228 227 228 231 233 235 238 240 239 238 236 236 237 230 215 203 203 213 246 276 274 265 259 256 252 248 244 242 241 243 247 251 253 253 253 252 252 252 253 255 256 257 258 259 261 265 270 275 281 284 286 290 293 294 297 301 307 313 313 312 313 317 320 319 316 314 312 312 311 311 310 308 308 311 313 315 318 320 322 322 324 327 331
234 232 228 226 226 226 229 233 236 235 233 233 235 236 238 237 228 215 209 221 246 262 267 266 265 263 259 256 251 246 242 241 244 249 252 253 254 253 253 253 254 257 258 259 259 259 260 264 268 272 277 280 282 286 289 291 294 298 304 308 310 309 310 314 318 318 317 317 317 315 314 312 309 308 310 313 315 316 318 321 321 322 324 329 333
231 230 227 225 222 220 224 230 232 231 228 229 232 234 238 240 238 229 223 230 244 251 251 256 264 266 265 265 262 256 250 245 244 248 252 254 254 253 253 254 256 258 260 260 260 261 261 263 266 270 273 276 279 282 285 288 291 295 300 304 305 306 307 311 315 316 317 319 319 317 315 312 311 311 313 315 316 317 319 320 321 322 326 331 334
227 226 225 222 219 220 225 228 229 227 226 228 230 232 236 238 236 233 234 239 245 250 252 255 258 258 259 263 266 265 260 254 249 249 252 255 256 254 253 253 255 257 260 262 262 262 263 264 265 267 271 274 277 280 282 286 289 293 298 301 302 303 306 309 311 314 317 319 319 318 316 314 313 313 314 316 316 317 319 320 320 322 327 331 334
228 227 226 223 222 224 228 229 229 228 228 230 230 231 233 234 232 233 237 242 248 253 256 257 255 254 255 257 260 264 266 263 258 256 256 258 258 257 254 253 255 258 260 262 264 264 264 264 264 266 269 272 275 278 280 283 286 290 294 298 299 300 303 306 309 312 316 318 318 318 317 316 315 315 315 316 316 317 318 319 319 322 327 331 333
233 234 234 233 232 232 234 235 235 234 234 234 232 232 233 232 233 236 239 242 247 253 256 256 254 253 254 256 256 259 262 264 263 262 261 261 261 261 259 256 256 259 261 263 264 264 264 264 264 264 266 269 272 275 278 280 283 286 291 294 296 297 299 303 306 309 312 314 315 316 317 317 317 316 315 315 315 316 317 317 318 322 326 330 332
239 242 244 246 247 247 248 248 247 245 244 242 239 235 233 233 235 239 244 248 250 252 253 254 254 253 253 253 253 252 254 259 264 265 265 264 265 265 265 263 260 260 261 261 262 263 263 263 263 263 264 266 269 271 274 278 280 283 287 291 293 295 297 300 303 306 309 311 312 314 316 317 317 316 315 315 315 315 316 316 318 321 325 329 331
246 249 252 254 255 256 256 255 253 250 248 248 246 242 239 239 240 244 248 252 253 252 251 250 252 254 254 253 252 250 248 250 254 259 263 265 267 268 268 267 264 262 260 260 260 262 262 262 262 262 263 265 265 268 271 275 278 280 284 288 291 293 294 297 301 304 305 307 308 311 313 315 316 316 315 314 314 314 315 315 317 320 324 328 331
250 253 256 256 256 257 257 255 253 251 250 250 250 248 246 245 246 248 251 253 252 251 251 251 254 258 262 264 265 264 260 253 249 249 254 260 264 267 269 269 268 267 265 263 262 262 263 263 262 263 264 263 262 264 268 272 274 277 281 284 289 291 291 294 298 300 301 303 305 307 309 312 314 316 315 313 313 313 314 314 315 318 323 327 330
248 250 253 254 254 255 256 256 256 255 253 253 253 252 250 250 250 251 251 252 252 253 254 257 260 264 267 271 273 275 273 267 258 250 248 252 257 262 266 268 271 272 271 268 265 264 264 264 264 264 264 263 262 262 265 268 271 274 278 281 285 288 288 290 293 293 296 300 302 302 305 309 312 314 314 313 312 313 313 313 314 317 321 325 329
243 245 248 250 251 252 254 255 257 259 257 255 255 255 255 256 255 254 253 252 254 257 258 261 263 266 268 271 273 274 274 275 271 259 250 250 254 258 261 265 268 271 272 271 269 267 266 266 265 264 264 263 261 261 264 266 268 271 275 279 282 284 284 285 288 289 292 298 300 299 301 305 308 312 314 312 311 311 312 312 313 316 319 323 327
241 243 246 249 251 252 251 250 250 254 256 257 256 257 260 261 262 261 258 255 257 261 261 262 264 266 268 271 272 272 271 274 276 269 256 251 254 258 261 263 265 265 264 265 267 267 266 265 265 264 264 263 262 261 263 265 267 270 272 275 278 280 281 283 286 288 292 298 298 296 298 302 305 310 312 312 310 310 310 311 312 314 316 320 326
240 242 246 250 253 254 253 249 247 251 255 259 260 262 264 265 266 265 261 258 260 262 261 262 265 268 271 272 272 272 272 273 276 275 265 257 258 261 263 264 265 264 262 261 262 262 262 262 263 264 263 261 261 261 262 264 266 267 269 272 275 277 279 281 285 287 292 296 296 293 295 299 302 306 309 310 309 308 309 310 311 313 314 317 324
245 246 249 252 255 257 257 255 253 255 258 261 262 264 267 268 266 265 263 262 263 263 263 266 269 271 274 275 274 273 273 273 274 274 271 266 263 264 266 267 268 268 268 266 263 260 260 259 260 262 263 261 261 260 261 263 265 266 268 270 273 275 277 279 282 285 289 293 291 290 294 299 300 302 306 309 307 306 307 309 310 311 312 315 322
247 249 252 254 256 257 258 259 259 260 262 264 264 266 268 269 268 267 267 267 267 268 269 271 273 275 276 277 277 276 274 273 274 275 275 273 270 269 269 270 271 271 273 274 270 266 264 261 257 257 259 260 260 260 261 263 264 265 267 268 271 273 275 277 279 281 285 287 286 288 296 300 299 300 304 307 306 305 306 308 309 309 310 313 320
248 249 251 252 254 255 257 259 260 262 264 265 265 265 267 269 271 272 272 273 273 274 275 275 276 277 277 278 279 279 277 277 277 277 277 275 273 271 271 271 273 274 275 276 274 269 266 264 261 258 258 258 259 260 262 262 263 264 266 267 269 272 274 276 277 279 282 284 283 285 293 298 298 299 303 304 303 304 305 306 307 308 308 311 318
251 252 253 253 253 254 256 258 260 262 264 266 265 266 267 271 274 275 275 276 276 276 276 277 278 279 279 279 278 278 278 278 278 278 278 276 275 274 273 272 273 273 272 272 272 270 267 266 266 264 261 258 258 259 260 261 262 264 266 267 269 271 274 276 276 278 281 283 282 283 288 293 295 297 299 301 301 302 304 305 306 306 306 308 316
253 254 255 256 256 257 258 259 261 263 265 267 268 269 270 271 272 273 272 272 272 273 275 276 277 278 279 279 278 277 277 277 277 278 278 276 274 274 274 273 273 273 270 268 266 266 265 263 262 263 262 261 260 259 260 261 263 264 266 267 267 270 272 274 275 277 280 282 283 285 286 289 292 295 296 296 299 300 302 303 304 304 304 306 313
256 256 257 257 258 259 259 261 262 264 265 267 269 270 270 269 269 269 268 268 269 271 273 273 274 275 276 276 275 276 276 276 277 277 276 274 273 273 273 274 274 274 273 268 264 264 263 261 258 258 259 261 261 260 260 260 261 263 265 265 265 267 270 272 274 277 280 281 283 286 286 285 290 295 295 294 296 299 300 301 303 302 301 304 311
257 257 257 257 258 259 260 261 262 263 265 266 267 268 268 267 266 266 266 267 268 269 270 271 271 272 273 274 275 275 275 274 274 274 275 276 276 275 275 275 275 275 275 273 268 266 265 264 262 259 258 258 260 260 260 259 260 261 262 262 262 264 268 271 273 275 277 279 281 285 285 285 289 293 293 292 295 297 298 300 301 300 299 302 309
254 256 257 257 258 259 260 261 262 263 264 264 264 264 264 263 263 263 264 265 266 267 269 270 272 273 274 275 275 275 275 274 273 272 272 274 275 275 276 276 274 273 273 273 271 268 265 265 264 263 262 262 261 260 259 259 259 259 259 261 261 262 264 268 271 274 277 279 281 282 282 283 287 289 289 290 293 295 297 298 299 298 297 300 307
252 253 255 256 257 257 258 259 260 260 260 260 260 260 260 260 261 262 263 265 267 269 271 272 273 275 276 276 277 277 276 275 274 274 273 273 273 273 273 273 272 271 270 270 270 269 267 264 262 262 264 265 265 263 260 258 258 258 260 262 263 262 263 266 269 273 276 278 280 279 277 279 283 285 285 288 292 294 295 296 297 296 295 297 305
252 252 253 254 255 256 257 258 258 258 258 259 260 260 261 263 264 265 266 268 269 271 272 273 274 275 275 275 276 277 276 275 275 274 274 274 274 272 271 270 268 267 266 267 268 268 267 264 262 261 263 265 266 265 263 261 260 260 262 263 264 263 264 264 266 270 272 274 276 275 274 276 280 281 282 287 291 292 293 294 295 294 293 295 302
252 253 253 255 257 259 260 260 260 260 260 260 261 262 263 264 265 266 267 267 269 270 272 272 273 273 273 273 274 275 276 275 274 273 273 273 272 272 270 269 267 266 265 265 265 266 266 265 263 262 261 261 262 263 263 264 264 264 264 264 264 264 264 264 265 269 270 270 272 273 272 275 278 277 279 286 289 289 291 292 293 292 291 293 299
251 253 256 258 261 263 264 264 263 262 262 262 263 263 264 264 265 266 267 268 270 272 273 274 274 274 274 275 276 277 276 276 275 274 273 272 271 271 270 269 269 268 267 267 265 264 263 264 264 263 260 258 258 260 262 264 265 264 265 264 262 262 262 262 264 267 267 266 269 271 272 275 276 274 278 285 286 287 289 290 291 291 290 291 296
251 254 256 259 261 263 264 264 263 263 264 264 265 265 266 266 267 269 270 271 272 274 275 276 276 276 276 278 279 279 278 278 278 277 276 274 274 273 272 271 271 270 269 268 267 265 263 262 262 262 261 258 256 257 260 262 260 259 262 263 260 258 259 259 260 263 264 264 267 270 272 273 272 272 278 283 283 285 287 289 289 289 288 289 293
251 252 254 257 261 263 264 264 264 265 265 266 266 267 268 269 270 271 272 273 274 275 277 278 277 277 277 278 279 279 279 279 278 277 277 278 278 278 278 277 275 271 269 266 265 264 263 261 259 259 260 259 257 256 257 257 254 253 259 261 257 254 256 257 259 262 263 263 266 269 271 272 271 272 278 281 282 283 286 287 288 288 287 287 290
254 254 256 259 262 263 264 265 266 266 267 267 267 268 269 269 270 272 273 275 276 277 277 278 277 277 277 277 277 278 279 279 279 279 280 282 283 283 282 281 277 272 268 265 263 262 260 258 257 256 256 256 256 256 256 254 250 252 258 259 255 255 256 257 259 263 263 261 263 269 272 270 269 271 277 279 280 282 285 286 287 286 285 285 288
258 260 262 263 264 264 265 266 267 268 269 269 270 271 271 272 273 275 276 278 277 277 276 276 276 277 276 277 277 278 280 282 283 285 288 290 289 289 288 284 277 269 263 259 259 257 254 253 253 252 251 252 252 252 253 253 251 254 259 257 253 253 256 257 262 267 265 260 262 269 271 268 267 271 276 277 278 281 283 284 284 284 283 283 285
262 264 265 266 266 267 268 269 270 270 271 271 272 272 274 275 276 277 278 277 276 275 275 275 276 276 277 278 279 281 282 284 287 291 293 294 296 297 296 289 279 271 262 254 250 249 247 246 246 246 246 248 249 249 249 249 249 254 257 253 248 250 256 261 266 268 263 258 261 268 269 265 265 269 273 275 278 280 282 282 282 282 282 281 282
263 264 265 266 268 269 269 270 270 270 270 270 270 271 273 274 274 275 275 274 273 273 274 275 276 277 278 279 281 282 284 287 290 294 297 300 304 306 301 286 274 278 272 251 240 238 238 238 240 243 243 245 247 247 246 246 249 254 254 249 247 253 261 264 264 262 258 259 264 267 264 261 264 269 272 274 277 279 280 281 280 280 280 280 280
261 262 264 265 268 269 271 271 271 270 269 269 269 269 270 272 272 272 270 270 271 272 273 275 276 277 279 281 283 285 288 291 294 298 301 304 310 317 317 293 261 254 248 237 229 226 228 232 235 238 240 241 244 246 244 243 246 250 249 247 251 258 260 259 257 258 261 265 266 262 258 259 265 269 271 273 275 277 278 279 279 279 279 279 279
261 263 264 267 269 270 271 272 271 270 270 269 269 269 270 270 270 270 269 269 271 272 273 275 277 278 281 283 285 287 290 292 296 298 301 304 308 314 320 310 254 213 206 205 204 206 214 223 230 234 238 240 240 240 238 236 239 243 247 252 257 255 253 254 258 263 265 264 260 256 256 261 265 268 270 271 274 276 277 277 278 278 279 279 279
265 267 270 271 272 272 272 271 270 269 269 268 268 269 269 269 269 268 268 270 272 273 274 276 278 280 282 284 286 288 290 291 294 296 299 304 306 301 296 296 279 221 192 185 187 198 211 221 226 229 232 234 234 235 234 235 239 247 253 256 255 252 253 258 262 263 262 258 253 252 257 262 265 267 268 270 272 275 276 276 277 278 279 279 279
269 272 274 275 274 273 272 271 269 268 267 266 266 266 267 267 268 269 270 271 274 275 277 278 280 281 283 284 285 287 288 289 291 293 294 299 303 298 294 298 296 259 210 196 206 226 238 236 229 227 229 232 236 238 239 242 249 256 259 256 253 254 257 260 260 258 255 250 249 254 259 262 264 266 267 269 272 274 275 276 277 279 280 280 279
268 272 274 274 272 270 269 268 267 266 266 265 264 265 266 267 269 270 271 273 275 277 278 279 280 281 282 283 283 284 285 285 288 290 291 293 296 297 298 301 299 277 250 243 247 251 250 242 235 232 234 237 241 244 246 251 257 260 257 254 253 256 258 257 255 252 248 247 252 257 260 261 263 265 266 269 271 273 274 276 277 279 280 280 278
269 272 272 270 268 266 265 265 264 264 264 264 264 264 265 266 268 270 271 273 275 276 277 278 279 279 279 281 281 280 280 282 284 287 290 291 291 291 291 291 285 272 261 257 255 252 248 245 244 243 243 244 246 247 249 251 253 251 250 251 253 255 255 253 250 248 248 252 256 258 259 261 262 263 265 268 270 272 274 275 276 278 280 280 279
271 272 269 267 266 264 263 263 263 263 264 265 265 265 266 266 267 268 270 271 273 275 275 276 277 277 277 278 278 276 275 276 279 281 285 288 289 288 285 281 275 265 257 253 250 248 246 245 245 246 246 245 245 244 245 245 246 247 250 252 253 251 249 246 246 247 251 255 257 258 260 260 261 262 265 267 269 271 273 274 276 278 279 279 279
269 268 266 265 265 264 263 263 263 264 264 264 265 265 266 266 267 268 269 270 271 273 274 275 276 276 275 274 273 272 272 273 274 274 275 278 281 282 282 280 275 268 261 255 252 250 248 246 244 244 244 243 243 244 246 249 251 253 252 250 247 244 242 243 246 250 254 256 258 260 260 260 260 262 264 266 268 271 272 274 276 278 278 278 279
265 264 264 264 264 264 264 264 265 265 265 265 266 266 267 267 268 268 269 269 270 270 272 273 273 273 273 272 270 269 270 272 272 271 269 269 270 271 273 276 276 272 267 263 259 255 253 252 250 248 247 247 248 250 252 253 253 250 246 241 239 239 241 245 249 252 255 257 259 260 259 260 261 263 264 266 268 271 273 275 276 277 278 279 279
260 261 261 262 263 264 265 265 265 265 265 265 266 266 266 267 267 267 267 268 268 269 270 270 270 270 271 271 270 267 267 268 269 269 270 271 270 269 271 274 276 275 272 269 265 260 257 255 255 254 253 254 254 254 253 250 246 240 237 237 239 242 246 249 252 254 256 258 259 259 261 262 263 263 265 267 269 271 273 275 276 277 278 278 279
Height
5906 5907 5908 5909 5910 5911 5911 5912 5912 5913 5914 5914 5915 5916 5916 5917 5918 5918 5919 5920 5922 5923 5925 5926 5926 5927 5927 5928 5928 5929 5929 5929 5930 5929 5930 5930 5930 5930 5930 5931 5931 5931 5931 5931 5931 5931 5930 5929 5928 5928 5927 5926 5925 5923 5922 5921 5920 5919 5918 5917 5916 5915 5913 5912 5911 5910 5909 5908 5907 5905 5904 5903 5901 5900 5898 5897 5895 5893 5892 5890 5888 5886 5884 5882 5880
5904 5905 5906 5907 5908 5908 5909 5910 5910 5911 5911 5912 5913 5913 5914 5915 5915 5916 5918 5918 5919 5921 5922 5923 5924 5924 5925 5926 5926 5927 5927 5927 5928 5928 5928 5928 5928 5928 5928 5928 5929 5929 5929 5929 5929 5929 5928 5927 5927 5926 5925 5924 5923 5921 5920 5919 5918 5917 5916 5915 5914 5913 5912 5911 5910 5909 5907 5906 5905 5904 5902 5901 5900 5898 5896 5895 5893 5892 5890 5888 5886 5884 5882 5879 5877
5902 5903 5904 5905 5905 5906 5907 5908 5909 5909 5910 5910 5911 5911 5912 5912 5913 5914 5915 5916 5917 5918 5919 5921 5921 5922 5923 5923 5924 5924 5924 5925 5925 5926 5926 5926 5926 5926 5926 5926 5927 5927 5927 5927 5927 5927 5926 5926 5925 5925 5924 5922 5921 5920 5919 5918 5917 5916 5914 5913 5912 5911 5910 5909 5908 5907 5905 5904 5903 5902 5900 5899 5897 5896 5894 5892 5891 5889 5887 5885 5883 5881 5879 5877 5874
5899 5900 5902 5902 5903 5904 5905 5906 5907 5907 5907 5908 5908 5908 5909 5909 5910 5911 5912 5913 5914 5916 5917 5918 5919 5919 5920 5921 5921 5921 5922 5922 5923 5923 5923 5923 5924 5924 5924 5924 5924 5924 5925 5925 5925 5925 5924 5924 5924 5923 5922 5921 5920 5919 5918 5917 5915 5914 5913 5912 5910 5909 5908 5906 5905 5904 5903 5902 5901 5899 5898 5896 5894 5893 5891 5889 5888 5886 5884 5882 5879 5877 5875 5873 5871
5897 5898 5899 5900 5901 5902 5904 5904 5905 5905 5905 5905 5906 5906 5906 5907 5908 5908 5909 5910 5911 5912 5914 5915 5916 5917 5917 5917 5918 5918 5919 5919 5920 5920 5921 5921 5921 5922 5922 5922 5922 5922 5922 5923 5923 5923 5922 5922 5922 5921 5921 5920 5919 5918 5917 5915 5914 5913 5912 5910 5909 5907 5906 5904 5903 5902 5901 5899 5898 5896 5894 5893 5891 5890 5888 5886 5885 5883 5881 5878 5876 5874 5872 5869 5867
5896 5896 5897 5898 5899 5901 5902 5903 5903 5903 5903 5903 5904 5904 5905 5905 5906 5906 5907 5908 5908 5909 5910 5911 5913 5913 5913 5914 5914 5915 5916 5916 5917 5918 5918 5918 5919 5919 5920 5920 5919 5920 5920 5920 5920 5920 5920 5920 5920 5919 5919 5918 5918 5916 5915 5914 5913 5911 5910 5909 5907 5905 5904 5902 5901 5900 5899 5897 5895 5893 5892 5890 5888 5887 5885 5883 5881 5879 5877 5875 5872 5870 5868 5865 5862
5894 5895 5895 5896 5898 5899 5900 5901 5901 5901 5901 5901 5902 5902 5903 5903 5904 5905 5905 5905 5906 5906 5907 5908 5909 5909 5910 5910 5911 5912 5913 5913 5914 5915 5915 5915 5916 5917 5917 5917 5917 5917 5918 5918 5918 5918 5918 5918 5918 5917 5917 5916 5916 5914 5913 5912 5911 5910 5908 5907 5905 5904 5902 5901 5899 5898 5897 5895 5893 5891 5889 5888 5886 5884 5882 5880 5878 5876 5874 5871 5869 5866 5864 5861 5857
5892 5893 5893 5895 5896 5898 5898 5899 5899 5899 5899 5900 5900 5901 5901 5902 5903 5903 5903 5904 5904 5904 5904 5904 5905 5905 5906 5907 5908 5909 5910 5911 5911 5912 5913 5913 5913 5914 5914 5914 5914 5915 5915 5915 5915 5915 5915 5915 5915 5915 5914 5914 5913 5912 5911 5910 5909 5908 5907 5905 5904 5902 5901 5899 5898 5897 5895 5893 5891 5889 5887 5885 5883 5881 5879 5877 5875 5873 5871 5868 5865 5862 5860 5857 5854
5889 5891 5891 5893 5895 5895 5896 5896 5897 5897 5898 5898 5899 5900 5900 5900 5901 5901 5902 5902 5902 5902 5902 5902 5902 5902 5903 5903 5904 5905 5907 5908 5909 5909 5910 5910 5910 5911 5911 5911 5911 5912 5912 5913 5913 5913 5913 5912 5912 5912 5912 5911 5910 5910 5909 5908 5907 5906 5905 5903 5902 5901 5899 5898 5896 5895 5893 5891 5889 5887 5885 5883 5881 5879 5876 5874 5872 5870 5867 5865 5862 5859 5856 5853 5850
5886 5888 5889 5891 5892 5892 5893 5894 5894 5895 5896 5897 5897 5898 5898 5899 5899 5900 5900 5900 5900 5900 5900 5901 5901 5901 5901 5901 5901 5902 5904 5905 5906 5906 5907 5907 5907 5907 5908 5908 5908 5908 5909 5910 5910 5910 5910 5910 5910 5910 5909 5909 5908 5907 5907 5906 5904 5904 5903 5901 5900 5899 5897 5896 5894 5893 5891 5889 5887 5884 5882 5880 5878 5876 5873 5871 5869 5866 5864 5861 5858 5856 5853 5850 5846
5882 5884 5886 5888 5888 5889 5890 5891 5892 5893 5894 5894 5895 5896 5896 5897 5897 5898 5898 5899 5899 5899 5899 5899 5899 5899 5899 5899 5900 5900 5901 5902 5903 5903 5904 5904 5904 5904 5904 5905 5905 5905 5906 5907 5907 5907 5907 5907 5907 5907 5906 5906 5905 5904 5904 5903 5902 5901 5900 5899 5898 5896 5895 5894 5892 5890 5889 5887 5884 5882 5879 5877 5875 5873 5870 5868 5865 5863 5860 5858 5855 5852 5849 5846 5842
5879 5880 5882 5884 5885 5886 5888 5889 5890 5891 5892 5892 5893 5893 5894 5895 5895 5896 5896 5897 5897 5898 5898 5898 5898 5898 5898 5898 5898 5899 5899 5899 5900 5901 5900 5900 5901 5901 5901 5901 5902 5902 5903 5903 5903 5903 5904 5904 5904 5904 5903 5903 5902 5901 5901 5900 5899 5898 5898 5897 5895 5894 5893 5891 5890 5888 5886 5884 5882 5879 5877 5875 5872 5870 5867 5865 5862 5860 5857 5854 5852 5849 5846 5842 5838
5876 5877 5879 5880 5881 5883 5884 5885 5887 5888 5889 5890 5890 5891 5891 5892 5893 5894 5894 5895 5895 5896 5896 5896 5897 5897 5897 5897 5897 5897 5897 5897 5898 5898 5897 5897 5897 5898 5898 5898 5898 5898 5899 5899 5900 5900 5900 5900 5900 5900 5900 5899 5899 5898 5898 5897 5896 5895 5895 5894 5893 5891 5890 5889 5887 5885 5883 5881 5879 5876 5874 5872 5869 5867 5864 5862 5859 5856 5854 5851 5848 5846 5842 5838 5835
5873 5874 5875 5877 5879 5880 5881 5882 5884 5885 5886 5887 5887 5888 5889 5889 5890 5891 5891 5892 5893 5893 5894 5894 5895 5895 5895 5895 5895 5895 5895 5895 5895 5895 5894 5894 5894 5894 5895 5895 5894 5894 5895 5895 5896 5896 5897 5897 5897 5897 5897 5896 5895 5895 5895 5894 5893 5892 5892 5891 5890 5888 5887 5886 5885 5883 5881 5878 5876 5874 5872 5869 5866 5863 5861 5859 5856 5853 5851 5848 5845 5842 5838 5835 5832
5870 5871 5873 5875 5876 5877 5878 5880 5881 5882 5883 5884 5884 5885 5886 5887 5887 5888 5889 5889 5890 5891 5891 5891 5892 5892 5893 5893 5893 5893 5893 5893 5893 5892 5892 5891 5890 5891 5891 5891 5891 5891 5891 5892 5892 5893 5893 5893 5893 5892 5893 5893 5892 5891 5891 5890 5889 5889 5888 5887 5886 5885 5884 5883 5882 5880 5878 5876 5873 5871 5868 5865 5862 5860 5858 5855 5853 5850 5848 5845 5842 5839 5835 5831 5828
5868 5869 5871 5873 5875 5875 5876 5877 5878 5880 5881 5881 5882 5883 5883 5884 5885 5885 5886 5886 5887 5888 5888 5888 5889 5889 5889 5890 5890 5891 5891 5891 5891 5890 5889 5888 5887 5886 5887 5887 5888 5887 5887 5888 5888 5889 5889 5889 5888 5888 5889 5889 5889 5887 5886 5887 5886 5885 5885 5884 5883 5882 5881 5880 5878 5876 5875 5872 5870 5867 5865 5862 5859 5857 5855 5852 5850 5847 5845 5842 5839 5835 5832 5828 5825
5866 5867 5869 5871 5872 5873 5874 5875 5876 5877 5878 5879 5879 5880 5881 5881 5882 5882 5883 5883 5884 5884 5884 5885 5885 5885 5886 5886 5887 5887 5888 5888 5888 5887 5886 5885 5884 5883 5883 5884 5884 5884 5883 5884 5884 5884 5884 5884 5884 5884 5884 5885 5885 5884 5882 5882 5882 5882 5881 5880 5879 5878 5877 5876 5875 5873 5871 5869 5867 5864 5861 5859 5856 5854 5852 5849 5847 5844 5841 5839 5836 5832 5829 5825 5822
5863 5865 5867 5868 5869 5871 5872 5872 5873 5874 5874 5875 5876 5877 5878 5878 5879 5879 5879 5880 5880 5880 5880 5881 5881 5881 5881 5882 5882 5883 5883 5883 5883 5883 5883 5882 5881 5880 5880 5879 5879 5879 5879 5879 5879 5879 5880 5880 5880 5880 5880 5881 5882 5880 5878 5878 5878 5878 5877 5876 5875 5874 5873 5872 5871 5869 5867 5865 5863 5860 5858 5855 5853 5851 5848 5846 5844 5841 5838 5836 5833 5829 5825 5822 5819
5861 5862 5863 5864 5866 5867 5868 5869 5869 5870 5871 5872 5873 5874 5874 5875 5875 5875 5876 5876 5876 5876 5876 5876 5877 5877 5878 5878 5878 5879 5879 5879 5879 5879 5878 5877 5877 5876 5876 5875 5875 5875 5875 5876 5876 5876 5876 5876 5877 5877 5876 5877 5877 5875 5873 5873 5874 5874 5873 5872 5871 5870 5868 5868 5867 5865 5863 5861 5859 5857 5854 5852 5850 5847 5845 5843 5840 5838 5835 5832 5829 5826 5822 5819 5816
5858 5859 5860 5861 5863 5863 5864 5865 5866 5867 5868 5869 5869 5870 5870 5871 5871 5871 5872 5872 5872 5872 5872 5873 5873 5873 5874 5874 5874 5875 5874 5874 5874 5874 5873 5872 5871 5871 5871 5871 5871 5872 5872 5872 5872 5872 5872 5872 5873 5873 5872 5872 5872 5871 5869 5868 5869 5869 5869 5868 5867 5865 5863 5863 5863 5860 5858 5857 5855 5853 5851 5848 5846 5844 5841 5839 5837 5834 5832 5829 5826 5823 5819 5816 5812
5855 5856 5857 5858 5860 5860 5861 5862 5863 5864 5864 5865 5866 5866 5867 5867 5868 5867 5867 5867 5868 5868 5869 5868 5869 5869 5869 5869 5870 5870 5870 5870 5869 5869 5869 5868 5866 5865 5865 5866 5867 5867 5867 5866 5867 5867 5868 5868 5869 5869 5867 5867 5867 5866 5864 5864 5864 5864 5864 5864 5862 5860 5859 5859 5858 5856 5854 5853 5851 5849 5847 5845 5843 5840 5838 5836 5833 5831 5828 5826 5823 5819 5816 5813 5809
5852 5853 5854 5855 5856 5857 5858 5859 5860 5860 5860 5861 5862 5862 5862 5863 5863 5863 5862 5863 5864 5864 5864 5864 5864 5864 5865 5865 5865 5865 5866 5865 5864 5864 5864 5864 5862 5861 5860 5860 5861 5860 5860 5860 5861 5862 5863 5863 5863 5864 5863 5861 5861 5860 5859 5859 5860 5860 5859 5859 5857 5856 5854 5854 5853 5851 5849 5848 5847 5846 5844 5841 5838 5836 5834 5832 5830 5827 5825 5822 5819 5816 5813 5810 5806
5848 5849 5851 5851 5852 5853 5854 5855 5856 5856 5856 5857 5857 5858 5857 5858 5858 5858 5857 5858 5859 5859 5859 5859 5859 5859 5859 5860 5860 5860 5860 5859 5859 5859 5859 5859 5859 5857 5855 5855 5854 5853 5853 5853 5854 5855 5856 5857 5858 5858 5857 5856 5855 5855 5854 5854 5855 5854 5854 5853 5852 5850 5849 5849 5848 5846 5845 5844 5843 5841 5839 5837 5834 5832 5830 5828 5826 5823 5821 5819 5816 5813 5810 5807 5803
5844 5845 5847 5847 5848 5849 5850 5851 5851 5852 5852 5853 5853 5853 5853 5853 5853 5853 5853 5853 5853 5854 5854 5854 5854 5854 5854 5854 5854 5854 5854 5853 5853 5853 5854 5854 5854 5852 5851 5849 5848 5847 5846 5847 5848 5849 5849 5850 5852 5852 5851 5849 5850 5849 5848 5849 5849 5849 5848 5847 5846 5844 5844 5844 5843 5841 5840 5840 5838 5836 5835 5832 5830 5827 5825 5824 5822 5819 5817 5815 5812 5810 5807 5804 5800
5839 5841 5842 5843 5844 5845 5846 5846 5847 5847 5848 5848 5849 5849 5848 5848 5849 5849 5849 5848 5848 5849 5849 5848 5847 5847 5847 5847 5847 5847 5847 5846 5846 5846 5848 5848 5847 5846 5845 5843 5840 5840 5840 5840 5841 5842 5843 5844 5845 5845 5843 5842 5842 5843 5843 5844 5844 5843 5842 5841 5839 5838 5838 5838 5837 5835 5835 5835 5833 5831 5829 5827 5825 5823 5821 5819 5817 5815 5813 5811 5808 5806 5803 5800 5797
5835 5836 5837 5838 5839 5840 5841 5842 5842 5843 5843 5844 5844 5844 5843 5843 5844 5844 5843 5843 5843 5843 5842 5841 5841 5841 5841 5841 5841 5840 5839 5839 5839 5840 5842 5842 5841 5840 5839 5837 5834 5834 5834 5833 5832 5833 5835 5837 5838 5837 5835 5834 5835 5836 5837 5838 5838 5836 5835 5835 5834 5832 5831 5831 5830 5829 5829 5829 5828 5825 5824 5823 5821 5819 5817 5815 5813 5811 5808 5806 5804 5802 5800 5797 5793
5830 5831 5832 5833 5834 5835 5836 5837 5837 5838 5838 5838 5839 5839 5838 5838 5838 5838 5838 5838 5837 5836 5835 5835 5834 5834 5834 5834 5834 5833 5832 5832 5832 5833 5835 5835 5834 5833 5833 5831 5828 5826 5826 5825 5824 5824 5827 5829 5830 5829 5827 5827 5827 5828 5829 5830 5830 5829 5829 5828 5827 5825 5825 5824 5823 5823 5823 5823 5822 5820 5819 5818 5816 5814 5812 5810 5808 5806 5804 5802 5800 5798 5796 5793 5790
5826 5827 5828 5828 5829 5830 5831 5832 5832 5832 5832 5832 5833 5833 5833 5832 5832 5832 5832 5831 5831 5830 5830 5829 5828 5827 5826 5826 5825 5824 5824 5825 5826 5827 5827 5827 5827 5825 5824 5823 5821 5818 5817 5816 5814 5813 5816 5819 5820 5819 5818 5819 5820 5821 5822 5823 5823 5822 5822 5821 5819 5819 5818 5817 5816 5816 5817 5816 5815 5814 5813 5812 5811 5809 5807 5805 5803 5801 5799 5798 5796 5794 5792 5789 5786
5820 5821 5822 5823 5824 5825 5826 5826 5826 5826 5826 5826 5826 5826 5826 5826 5826 5826 5826 5825 5825 5824 5824 5823 5822 5821 5819 5818 5817 5816 5817 5818 5820 5819 5818 5817 5818 5817 5815 5815 5813 5810 5808 5808 5806 5804 5806 5808 5810 5810 5810 5810 5811 5813 5814 5815 5815 5814 5813 5812 5811 5812 5812 5810 5809 5810 5810 5809 5809 5808 5807 5806 5805 5803 5801 5799 5798 5796 5795 5793 5791 5790 5788 5786 5782
5814 5815 5816 5817 5818 5819 5819 5820 5820 5820 5820 5820 5820 5820 5820 5820 5820 5820 5819 5819 5818 5818 5817 5816 5815 5813 5812 5811 5810 5809 5809 5811 5813 5811 5808 5807 5807 5807 5807 5806 5805 5802 5800 5800 5799 5798 5798 5799 5800 5800 5799 5799 5801 5804 5806 5806 5806 5805 5804 5803 5803 5805 5804 5803 5803 5804 5803 5803 5803 5802 5801 5800 5799 5797 5796 5794 5793 5791 5790 5789 5787 5785 5784 5782 5778
5807 5808 5809 5810 5811 5812 5812 5813 5813 5813 5813 5813 5813 5813 5814 5814 5814 5813 5812 5811 5811 5810 5809 5809 5807 5806 5804 5804 5803 5802 5801 5803 5804 5803 5801 5799 5798 5797 5796 5796 5796 5794 5791 5787 5785 5787 5789 5791 5791 5790 5790 5791 5793 5795 5797 5797 5797 5796 5795 5794 5795 5797 5797 5796 5796 5797 5797 5796 5796 5796 5795 5794 5793 5791 5790 5788 5787 5786 5785 5784 5783 5781 5780 5777 5774
5801 5801 5802 5803 5804 5804 5805 5806 5806 5806 5806 5805 5806 5806 5806 5806 5806 5805 5805 5804 5804 5803 5802 5800 5799 5798 5796 5795 5794 5793 5793 5794 5794 5794 5792 5790 5789 5788 5787 5786 5785 5785 5782 5776 5771 5771 5775 5779 5781 5781 5781 5783 5786 5787 5789 5789 5788 5787 5786 5786 5787 5789 5789 5789 5789 5790 5790 5790 5789 5788 5788 5788 5786 5785 5783 5782 5782 5781 5780 5780 5778 5777 5775 5773 5770
5794 5795 5795 5796 5797 5798 5798 5798 5798 5799 5799 5799 5799 5799 5799 5799 5798 5798 5797 5797 5796 5795 5793 5792 5791 5790 5788 5786 5785 5784 5785 5786 5785 5784 5782 5780 5779 5778 5777 5775 5775 5774 5771 5765 5759 5757 5759 5764 5769 5771 5773 5776 5778 5779 5780 5780 5779 5778 5777 5778 5780 5781 5781 5781 5782 5783 5783 5783 5782 5782 5781 5781 5780 5778 5776 5776 5776 5776 5775 5775 5774 5772 5771 5769 5765
5787 5788 5789 5790 5790 5790 5791 5791 5791 5792 5792 5792 5792 5792 5792 5792 5791 5790 5790 5789 5788 5787 5785 5784 5783 5781 5780 5778 5776 5775 5776 5776 5776 5775 5773 5770 5769 5767 5765 5764 5763 5761 5759 5756 5751 5747 5747 5751 5756 5760 5764 5767 5768 5769 5770 5770 5770 5770 5769 5769 5772 5773 5772 5771 5773 5775 5776 5776 5776 5776 5775 5774 5773 5771 5770 5770 5771 5770 5770 5770 5769 5768 5766 5764 5761
5781 5781 5782 5783 5783 5783 5784 5784 5784 5784 5784 5785 5785 5785 5784 5784 5783 5782 5782 5781 5780 5779 5777 5776 5774 5772 5770 5769 5767 5766 5766 5765 5765 5764 5762 5759 5758 5756 5753 5750 5748 5748 5747 5745 5742 5740 5741 5743 5745 5748 5752 5755 5757 5758 5759 5759 5760 5761 5761 5762 5764 5765 5763 5763 5766 5768 5769 5769 5769 5769 5769 5768 5766 5764 5764 5765 5765 5765 5765 5765 5764 5763 5762 5760 5757
5774 5775 5775 5776 5776 5776 5777 5777 5777 5777 5777 5777 5777 5777 5776 5775 5775 5775 5774 5773 5773 5772 5770 5769 5767 5764 5761 5759 5757 5756 5755 5753 5752 5750 5748 5746 5745 5742 5738 5736 5737 5737 5735 5732 5729 5730 5734 5736 5737 5738 5740 5742 5745 5748 5749 5750 5751 5752 5752 5753 5755 5756 5755 5756 5758 5760 5761 5762 5763 5763 5762 5761 5760 5758 5758 5759 5760 5760 5760 5760 5759 5759 5758 5756 5753
5767 5768 5769 5769 5769 5770 5770 5769 5769 5769 5769 5769 5769 5769 5768 5768 5767 5767 5766 5766 5765 5764 5762 5760 5758 5756 5753 5750 5747 5745 5743 5741 5740 5739 5736 5734 5731 5726 5722 5721 5720 5720 5720 5718 5716 5717 5721 5723 5725 5727 5729 5731 5735 5737 5738 5739 5740 5742 5743 5745 5746 5746 5747 5748 5749 5751 5754 5756 5757 5756 5756 5755 5753 5753 5753 5753 5754 5754 5755 5755 5755 5754 5753 5752 5749
5760 5761 5762 5762 5762 5762 5762 5762 5762 5761 5761 5761 5761 5761 5760 5760 5759 5759 5758 5757 5756 5755 5753 5751 5749 5747 5744 5741 5739 5736 5733 5731 5729 5729 5727 5724 5720 5714 5709 5704 5699 5697 5698 5699 5700 5704 5708 5711 5713 5717 5720 5723 5725 5726 5726 5727 5729 5732 5735 5737 5738 5739 5740 5741 5742 5744 5747 5749 5750 5750 5749 5748 5747 5747 5748 5748 5749 5749 5749 5750 5750 5749 5749 5747 5745
5753 5754 5754 5754 5755 5755 5755 5754 5754 5753 5753 5753 5753 5752 5752 5752 5751 5750 5750 5749 5747 5747 5745 5742 5740 5738 5735 5732 5730 5728 5725 5721 5719 5718 5717 5713 5708 5701 5692 5683 5675 5671 5673 5677 5682 5689 5696 5700 5703 5707 5711 5713 5715 5717 5718 5719 5721 5724 5727 5729 5730 5731 5733 5735 5736 5737 5740 5742 5743 5743 5742 5742 5742 5742 5743 5743 5744 5744 5745 5745 5745 5745 5744 5742 5740
5746 5746 5747 5747 5747 5747 5747 5746 5746 5745 5745 5745 5745 5744 5744 5744 5743 5742 5742 5740 5739 5738 5736 5734 5732 5730 5727 5724 5721 5719 5717 5715 5712 5709 5705 5700 5694 5685 5673 5664 5658 5654 5654 5660 5668 5676 5683 5690 5695 5698 5701 5704 5707 5709 5710 5712 5714 5718 5720 5722 5723 5726 5728 5730 5731 5731 5733 5735 5736 5736 5736 5736 5736 5737 5737 5738 5739 5739 5740 5740 5740 5739 5739 5737 5736
5739 5739 5739 5740 5740 5739 5739 5738 5738 5737 5737 5737 5737 5736 5736 5736 5735 5735 5733 5732 5731 5730 5728 5727 5725 5722 5719 5717 5714 5711 5708 5708 5706 5702 5694 5688 5682 5671 5659 5653 5653 5649 5646 5650 5659 5668 5676 5683 5687 5690 5693 5697 5699 5701 5703 5706 5710 5713 5716 5718 5720 5723 5725 5725 5725 5726 5727 5728 5729 5730 5729 5730 5731 5732 5733 5733 5734 5734 5735 5735 5735 5734 5733 5732 5731
5732 5732 5733 5733 5733 5732 5732 5731 5730 5729 5728 5728 5728 5728 5728 5728 5727 5727 5725 5724 5723 5722 5721 5720 5718 5716 5713 5710 5707 5704 5700 5699 5699 5696 5689 5683 5678 5668 5655 5649 5649 5648 5647 5650 5658 5666 5673 5677 5679 5682 5687 5690 5692 5694 5699 5704 5708 5710 5711 5714 5717 5718 5719 5719 5719 5720 5721 5722 5723 5723 5723 5724 5726 5727 5728 5728 5729 5729 5730 5730 5730 5729 5728 5727 5726
5726 5726 5726 5726 5726 5725 5725 5724 5723 5722 5721 5721 5721 5721 5721 5720 5720 5719 5718 5717 5716 5715 5714 5713 5711 5710 5707 5704 5701 5698 5694 5692 5692 5690 5686 5683 5680 5674 5665 5660 5658 5657 5653 5650 5651 5657 5665 5670 5674 5679 5684 5687 5689 5692 5696 5700 5702 5703 5705 5708 5710 5711 5712 5713 5714 5714 5716 5716 5717 5717 5718 5720 5721 5722 5723 5724 5724 5724 5725 5725 5724 5724 5723 5723 5722
5719 5719 5719 5718 5718 5717 5717 5716 5715 5715 5714 5714 5713 5713 5713 5713 5712 5711 5711 5710 5709 5708 5707 5706 5705 5703 5701 5699 5696 5693 5690 5688 5686 5684 5681 5680 5678 5675 5671 5670 5669 5666 5660 5653 5652 5658 5667 5671 5674 5678 5682 5685 5687 5690 5692 5693 5695 5697 5699 5701 5703 5704 5705 5707 5708 5709 5710 5710 5711 5712 5714 5715 5716 5717 5718 5719 5719 5719 5719 5719 5719 5719 5718 5718 5717
5711 5711 5710 5710 5710 5709 5709 5708 5707 5707 5707 5707 5706 5706 5705 5705 5705 5705 5704 5704 5702 5701 5700 5699 5698 5697 5695 5693 5692 5689 5686 5684 5682 5680 5677 5676 5676 5675 5673 5671 5670 5668 5665 5662 5662 5666 5670 5672 5673 5676 5679 5681 5683 5684 5685 5687 5689 5691 5693 5695 5696 5698 5700 5701 5702 5703 5703 5704 5706 5708 5709 5710 5711 5712 5713 5714 5714 5714 5714 5714 5714 5714 5713 5713 5712
5703 5703 5703 5703 5702 5701 5701 5700 5700 5700 5700 5700 5699 5699 5698 5698 5698 5697 5697 5697 5696 5695 5694 5692 5691 5690 5689 5687 5686 5685 5683 5680 5678 5676 5673 5671 5672 5674 5675 5674 5672 5671 5669 5668 5667 5668 5669 5671 5673 5674 5676 5677 5678 5679 5681 5683 5684 5686 5688 5690 5691 5693 5694 5695 5696 5696 5697 5699 5701 5703 5704 5705 5706 5707 5708 5708 5709 5709 5709 5709 5709 5708 5708 5708 5707
5696 5696 5695 5695 5694 5694 5693 5693 5693 5692 5692 5692 5692 5692 5691 5691 5691 5690 5690 5690 5689 5688 5687 5686 5685 5684 5683 5681 5681 5680 5679 5677 5675 5672 5668 5666 5666 5668 5672 5674 5675 5675 5674 5672 5671 5671 5671 5671 5672 5673 5673 5674 5675 5676 5677 5679 5680 5682 5684 5685 5686 5687 5689 5689 5690 5691 5692 5694 5696 5698 5699 5700 5701 5702 5703 5703 5703 5704 5704 5704 5703 5703 5703 5702 5702
5688 5688 5687 5687 5687 5686 5686 5686 5685 5685 5685 5685 5685 5684 5684 5684 5683 5683 5683 5683 5682 5682 5681 5680 5679 5678 5677 5676 5675 5674 5674 5674 5673 5670 5666 5662 5660 5660 5664 5668 5671 5673 5673 5673 5672 5671 5671 5671 5671 5671 5672 5672 5672 5673 5674 5675 5677 5678 5679 5680 5681 5682 5683 5683 5685 5686 5688 5689 5691 5693 5694 5695 5696 5697 5697 5698 5698 5698 5698 5698 5698 5698 5698 5697 5697
5681 5681 5680 5680 5680 5679 5679 5679 5678 5678 5678 5678 5678 5677 5677 5677 5676 5676 5676 5676 5676 5676 5675 5674 5673 5673 5672 5672 5671 5669 5668 5668 5668 5668 5665 5662 5659 5657 5657 5660 5663 5665 5667 5668 5668 5668 5669 5668 5669 5669 5669 5669 5670 5670 5671 5672 5672 5673 5674 5675 5676 5677 5678 5679 5680 5682 5683 5685 5686 5688 5689 5690 5691 5692 5692 5692 5693 5693 5693 5693 5693 5692 5692 5692 5692
5674 5674 5674 5673 5673 5673 5673 5672 5672 5672 5672 5672 5672 5671 5671 5670 5670 5670 5669 5669 5670 5670 5669 5668 5668 5668 5668 5667 5666 5665 5663 5662 5662 5662 5662 5661 5659 5657 5656 5655 5656 5657 5658 5660 5661 5662 5663 5664 5664 5664 5665 5665 5665 5666 5666 5667 5667 5668 5669 5670 5671 5672 5673 5675 5676 5677 5679 5680 5682 5683 5684 5685 5686 5687 5687 5687 5688 5688 5688 5687 5687 5687 5687 5687 5687
5667 5667 5667 5667 5667 5667 5666 5666 5666 5666 5666 5666 5665 5665 5665 5664 5664 5664 5663 5663 5663 5664 5663 5663 5662 5662 5662 5662 5662 5661 5661 5659 5658 5658 5657 5657 5656 5656 5655 5654 5653 5653 5653 5654 5654 5655 5656 5657 5658 5658 5659 5659 5660 5660 5661 5662 5662 5663 5664 5665 5666 5668 5669 5671 5672 5673 5675 5676 5677 5678 5679 5680 5680 5681 5682 5682 5682 5682 5682 5682 5682 5682 5682 5682 5682